FENGYUN 1C DEB

Satellite information

Favourite Embed

Satellite Type and Status

DEBRISIN ORBIT

Key statistics

Satellite FENGYUN 1C DEB at a glance.

Uptime

9714

Days in orbit

Revolutions

≈ 14.1

Per day

Orbit

SSO

Sun Synchronous Orbit

Inclination

99.1

Latest

Satellite identification and parameters

Extended collection of information and parameters for FENGYUN 1C DEB.

Object identification

Identified? True

Debris? True

Object name: FENGYUN 1C DEB

International designator: 1999-025EKH

Object number (NORAD): 37589

Object ID (CCSDS): 37589

Country: PEOPLES REPUBLIC OF CHINA (PRC)

Current information (Y/N): Y

RCS size: SMALL

Orbital parameters

Period: 102.262 minutes

Inclination: 99.073 deg

SMA: 7243.868 km

Apoapsis: 952.029 km

Periapsis: 779.437 km

RAAN: 247.5422 deg

Eccentricy: 0.011913

Argument of periapsis: 269.2898 deg

Mean anomaly: 89.462 deg

Mean motion: 14.08143621 rev/day

Mean motion (dot): 0.00009008 rev/day2

B* drag term: 0.0049708 1/REarth

Two-line elements (TLE)

Creation date: Dec. 11, 2025, 7:26 a.m.

Reference frame: TEME

Reference center: EARTH

Epoch: Dec. 10, 2025, 10:50 p.m. UTC

TLE line 0: 0 FENGYUN 1C DEB

TLE line 1: 1 37589U 99025EKH 25344.95150706 .00009008 00000-0 49708-2 0 9995

TLE line 2: 2 37589 99.0730 247.5422 0119130 269.2898 89.4620 14.08143621825595

Live tracking on map

Real-time ground track for satellite FENGYUN 1C DEB.

In-orbit conjunctions

A list of the most updated potential collisions computed for object FENGYUN 1C DEB.

Target Orbit TCA Probability of collision Miss distance Type
CZ-6A DEB LEO 2024-11-19 13:10:43 0.0001296294 443.0 (m) DEBRIS
FENGYUN 1C DEB SSO 2024-11-15 03:28:41 0.0004937482 739.0 (m) DEBRIS
SL-16 DEB LEO 2024-11-13 13:27:20 0.0001005703 730.0 (m) DEBRIS
SL-8 R/B LEO 2024-09-25 17:03:59 0.0001998439 193.0 (m) ROCKET BODY

Associated space launch

Chinese polar orbiting meteorological satellite

FENGYUN 1C DEB was lifted into orbit during the mission ‘Long March 4B | Feng Yun 1C’, on board a Long March 4B space rocket.

The launch took place on May 10, 1999, 1:33 a.m. from Launch Complex 7.

For more information about the launch, click the button.

Launch to space Long March 4B | Feng Yun 1C
Long March 4B | Feng Yun 1C

Agency: N/A

Status: Launch Successful

Launch date: May 10, 1999, 1:33 a.m. UTC

Rocket: Long March 4B

Launch pad: Launch Complex 7

Location: Taiyuan Satellite Launch Center, People's Republic of China

...

Latest news about this satellite

There are no fresh news available about this satellite. Check back as we update our databases every day.


Newsletter sign-up

Weekly statistics, charts and insights to help you stay on top of the space industry.